Time,TemperatureF,DewpointF,PressureIn,WindDirection,WindDirectionDegrees,WindSpeedMPH,WindSpeedGustMPH,Humidity,HourlyPrecipIn,Conditions,Clouds,dailyrainin,SoftwareType,DateUTC
2013-07-07 00:05:00,73.1,70.6,30.03,North,5,0.0,8.0,92,0.00,,,0.00,Wunderground v.1.15,2013-07-07 04:05:00,
2013-07-07 00:10:00,73.2,70.7,30.03,North,5,0.0,8.0,92,0.00,,,0.00,Wunderground v.1.15,2013-07-07 04:10:00,
2013-07-07 00:15:00,73.2,70.7,30.03,North,9,0.0,8.0,92,0.00,,,0.00,Wunderground v.1.15,2013-07-07 04:15:00,
2013-07-07 00:20:00,73.1,71.0,30.03,North,9,0.0,8.0,93,0.00,,,0.00,Wunderground v.1.15,2013-07-07 04:20:00,
2013-07-07 00:25:00,73.0,70.9,30.03,North,9,0.0,8.0,93,0.00,,,0.00,Wunderground v.1.15,2013-07-07 04:25:00,
2013-07-07 00:30:00,72.9,71.1,30.03,North,9,0.0,8.0,94,0.00,,,0.00,Wunderground v.1.15,2013-07-07 04:30:00,
2013-07-07 00:40:00,72.6,71.1,30.03,North,9,0.0,8.0,95,0.00,,,0.00,Wunderground v.1.15,2013-07-07 04:40:00,
2013-07-07 00:45:00,72.5,71.0,30.03,North,9,0.0,8.0,95,0.00,,,0.00,Wunderground v.1.15,2013-07-07 04:45:00,
2013-07-07 00:50:00,72.4,70.9,30.02,North,9,0.0,8.0,95,0.00,,,0.00,Wunderground v.1.15,2013-07-07 04:50:00,
2013-07-07 00:55:00,72.4,71.2,30.02,North,9,0.0,8.0,96,0.00,,,0.00,Wunderground v.1.15,2013-07-07 04:55:00,
2013-07-07 01:05:00,72.2,71.0,30.03,North,9,0.0,8.0,96,0.00,,,0.00,Wunderground v.1.15,2013-07-07 05:05:00,
2013-07-07 01:10:00,72.2,70.7,30.03,North,9,0.0,8.0,95,0.00,,,0.00,Wunderground v.1.15,2013-07-07 05:10:00,
2013-07-07 01:15:00,72.3,70.8,30.03,North,9,0.0,8.0,95,0.00,,,0.00,Wunderground v.1.15,2013-07-07 05:15:00,
2013-07-07 01:20:00,72.4,70.9,30.03,North,9,0.0,8.0,95,0.00,,,0.00,Wunderground v.1.15,2013-07-07 05:20:00,
2013-07-07 01:25:00,72.4,70.9,30.03,North,9,0.0,8.0,95,0.00,,,0.00,Wunderground v.1.15,2013-07-07 05:25:00,
2013-07-07 01:30:00,72.4,70.9,30.03,North,9,0.0,8.0,95,0.00,,,0.00,Wunderground v.1.15,2013-07-07 05:30:00,
2013-07-07 01:35:00,72.4,70.9,30.03,North,9,0.0,8.0,95,0.00,,,0.00,Wunderground v.1.15,2013-07-07 05:35:00,
2013-07-07 01:40:00,72.4,70.9,30.02,North,9,0.0,8.0,95,0.00,,,0.00,Wunderground v.1.15,2013-07-07 05:40:00,
2013-07-07 01:45:00,72.5,71.0,30.03,North,9,0.0,8.0,95,0.00,,,0.00,Wunderground v.1.15,2013-07-07 05:45:00,
2013-07-07 01:50:00,72.4,70.9,30.02,North,9,0.0,8.0,95,0.00,,,0.00,Wunderground v.1.15,2013-07-07 05:50:00,
2013-07-07 01:55:00,72.4,70.9,30.02,North,9,0.0,8.0,95,0.00,,,0.00,Wunderground v.1.15,2013-07-07 05:55:00,
2013-07-07 02:00:00,72.4,70.9,30.02,North,9,0.0,8.0,95,0.00,,,0.00,Wunderground v.1.15,2013-07-07 06:00:00,
2013-07-07 02:10:00,72.4,70.9,30.02,North,9,0.0,8.0,95,0.00,,,0.00,Wunderground v.1.15,2013-07-07 06:10:00,
2013-07-07 02:15:00,72.3,70.8,30.02,North,9,0.0,8.0,95,0.00,,,0.00,Wunderground v.1.15,2013-07-07 06:15:00,
2013-07-07 02:20:00,72.3,70.8,30.02,North,9,0.0,8.0,95,0.00,,,0.00,Wunderground v.1.15,2013-07-07 06:20:00,
2013-07-07 02:25:00,72.3,70.8,30.02,North,9,0.0,8.0,95,0.00,,,0.00,Wunderground v.1.15,2013-07-07 06:25:00,
2013-07-07 02:30:00,72.3,70.8,30.02,North,9,0.0,8.0,95,0.00,,,0.00,Wunderground v.1.15,2013-07-07 06:30:00,
2013-07-07 02:35:00,72.3,70.8,30.01,North,9,0.0,8.0,95,0.00,,,0.00,Wunderground v.1.15,2013-07-07 06:35:00,
2013-07-07 02:40:00,72.2,70.7,30.02,North,9,0.0,8.0,95,0.00,,,0.00,Wunderground v.1.15,2013-07-07 06:40:00,
2013-07-07 02:45:00,72.2,70.7,30.01,North,9,0.0,8.0,95,0.00,,,0.00,Wunderground v.1.15,2013-07-07 06:45:00,
2013-07-07 02:50:00,72.1,70.9,30.01,North,9,0.0,8.0,96,0.00,,,0.00,Wunderground v.1.15,2013-07-07 06:50:00,
2013-07-07 03:00:00,72.1,70.6,30.01,North,9,0.0,8.0,95,0.00,,,0.00,Wunderground v.1.15,2013-07-07 07:00:00,
2013-07-07 03:05:00,72.1,70.6,30.01,North,9,0.0,8.0,95,0.00,,,0.00,Wunderground v.1.15,2013-07-07 07:05:00,
2013-07-07 03:10:00,72.1,70.6,30.01,North,9,0.0,8.0,95,0.00,,,0.00,Wunderground v.1.15,2013-07-07 07:10:00,
2013-07-07 03:15:00,72.0,70.5,30.01,North,9,0.0,8.0,95,0.00,,,0.00,Wunderground v.1.15,2013-07-07 07:15:00,
2013-07-07 03:20:00,72.0,70.8,30.01,North,9,0.0,8.0,96,0.00,,,0.00,Wunderground v.1.15,2013-07-07 07:20:00,
2013-07-07 03:25:00,71.9,70.7,30.01,North,9,0.0,8.0,96,0.00,,,0.00,Wunderground v.1.15,2013-07-07 07:25:00,
2013-07-07 03:30:00,71.7,70.5,30.01,North,9,0.0,8.0,96,0.00,,,0.00,Wunderground v.1.15,2013-07-07 07:30:00,
2013-07-07 03:40:00,71.5,70.3,30.01,North,9,0.0,8.0,96,0.00,,,0.00,Wunderground v.1.15,2013-07-07 07:40:00,
2013-07-07 03:45:00,71.5,70.3,30.01,North,9,0.0,8.0,96,0.00,,,0.00,Wunderground v.1.15,2013-07-07 07:45:00,
2013-07-07 03:50:00,71.4,70.5,30.01,North,9,0.0,8.0,97,0.00,,,0.00,Wunderground v.1.15,2013-07-07 07:50:00,
2013-07-07 04:00:00,71.1,70.2,30.01,North,9,0.0,8.0,97,0.00,,,0.00,Wunderground v.1.15,2013-07-07 08:00:00,
2013-07-07 04:05:00,71.0,70.1,30.01,North,9,0.0,8.0,97,0.00,,,0.00,Wunderground v.1.15,2013-07-07 08:05:00,
2013-07-07 04:10:00,70.8,69.9,30.01,North,9,0.0,8.0,97,0.00,,,0.00,Wunderground v.1.15,2013-07-07 08:10:00,
2013-07-07 04:15:00,70.7,69.8,30.00,North,9,0.0,8.0,97,0.00,,,0.00,Wunderground v.1.15,2013-07-07 08:15:00,
2013-07-07 04:25:00,70.5,69.6,30.00,North,9,0.0,8.0,97,0.00,,,0.00,Wunderground v.1.15,2013-07-07 08:25:00,
2013-07-07 04:30:00,70.3,69.4,30.00,North,9,0.0,8.0,97,0.00,,,0.00,Wunderground v.1.15,2013-07-07 08:30:00,
2013-07-07 04:35:00,70.2,69.6,30.00,North,9,0.0,8.0,98,0.00,,,0.00,Wunderground v.1.15,2013-07-07 08:35:00,
2013-07-07 04:40:00,70.2,69.6,30.00,North,9,0.0,8.0,98,0.00,,,0.00,Wunderground v.1.15,2013-07-07 08:40:00,
2013-07-07 04:45:00,70.2,69.6,30.00,North,9,0.0,8.0,98,0.00,,,0.00,Wunderground v.1.15,2013-07-07 08:45:00,
2013-07-07 04:50:00,70.1,69.5,30.00,North,9,0.0,8.0,98,0.00,,,0.00,Wunderground v.1.15,2013-07-07 08:50:00,
2013-07-07 04:55:00,70.0,69.7,30.00,North,9,0.0,8.0,99,0.00,,,0.00,Wunderground v.1.15,2013-07-07 08:55:00,
2013-07-07 05:05:00,70.0,69.7,30.00,North,9,0.0,8.0,99,0.00,,,0.00,Wunderground v.1.15,2013-07-07 09:05:00,
2013-07-07 05:10:00,70.0,69.7,30.00,North,9,0.0,8.0,99,0.00,,,0.00,Wunderground v.1.15,2013-07-07 09:10:00,
2013-07-07 05:20:00,70.0,69.7,30.00,North,9,0.0,8.0,99,0.00,,,0.00,Wunderground v.1.15,2013-07-07 09:20:00,
2013-07-07 05:25:00,69.9,69.6,30.00,North,9,0.0,8.0,99,0.00,,,0.00,Wunderground v.1.15,2013-07-07 09:25:00,
2013-07-07 05:30:00,69.9,69.6,30.01,North,9,0.0,8.0,99,0.00,,,0.00,Wunderground v.1.15,2013-07-07 09:30:00,
2013-07-07 05:40:00,69.9,69.9,30.01,North,9,0.0,8.0,100,0.00,,,0.00,Wunderground v.1.15,2013-07-07 09:40:00,
2013-07-07 05:45:00,69.9,69.9,30.01,North,9,0.0,8.0,100,0.00,,,0.00,Wunderground v.1.15,2013-07-07 09:45:00,
2013-07-07 05:50:00,69.9,69.6,30.01,North,9,0.0,8.0,99,0.00,,,0.00,Wunderground v.1.15,2013-07-07 09:50:00,
2013-07-07 05:55:00,69.9,69.9,30.01,North,9,0.0,8.0,100,0.00,,,0.00,Wunderground v.1.15,2013-07-07 09:55:00,
2013-07-07 06:05:00,70.1,70.1,30.01,North,9,0.0,8.0,100,0.00,,,0.00,Wunderground v.1.15,2013-07-07 10:05:00,
2013-07-07 06:10:00,70.2,70.2,30.01,North,9,0.0,8.0,100,0.00,,,0.00,Wunderground v.1.15,2013-07-07 10:10:00,
2013-07-07 06:15:00,70.3,70.3,30.01,North,9,0.0,8.0,100,0.00,,,0.00,Wunderground v.1.15,2013-07-07 10:15:00,
2013-07-07 06:20:00,70.4,70.4,30.01,North,9,0.0,8.0,100,0.00,,,0.00,Wunderground v.1.15,2013-07-07 10:20:00,
2013-07-07 06:25:00,70.6,70.6,30.01,North,9,0.0,8.0,100,0.00,,,0.00,Wunderground v.1.15,2013-07-07 10:25:00,
2013-07-07 06:30:00,70.8,70.8,30.01,North,9,0.0,8.0,100,0.00,,,0.00,Wunderground v.1.15,2013-07-07 10:30:00,
2013-07-07 06:35:00,71.0,71.0,30.01,North,9,0.0,8.0,100,0.00,,,0.00,Wunderground v.1.15,2013-07-07 10:35:00,
2013-07-07 06:40:00,71.2,71.2,30.01,North,9,0.0,8.0,100,0.00,,,0.00,Wunderground v.1.15,2013-07-07 10:40:00,
2013-07-07 06:45:00,71.4,71.4,30.01,North,9,0.0,8.0,100,0.00,,,0.00,Wunderground v.1.15,2013-07-07 10:45:00,
2013-07-07 06:55:00,72.1,72.1,30.01,North,9,0.0,8.0,100,0.00,,,0.00,Wunderground v.1.15,2013-07-07 10:55:00,
2013-07-07 07:00:00,72.3,72.3,30.01,North,9,0.0,8.0,100,0.00,,,0.00,Wunderground v.1.15,2013-07-07 11:00:00,
2013-07-07 07:05:00,72.5,72.5,30.01,North,9,0.0,8.0,100,0.00,,,0.00,Wunderground v.1.15,2013-07-07 11:05:00,
2013-07-07 07:10:00,72.8,72.8,30.01,North,9,0.0,8.0,100,0.00,,,0.00,Wunderground v.1.15,2013-07-07 11:10:00,
2013-07-07 07:15:00,73.3,73.3,30.01,North,9,0.0,8.0,100,0.00,,,0.00,Wunderground v.1.15,2013-07-07 11:15:00,
2013-07-07 07:20:00,73.6,73.0,30.01,North,9,0.0,8.0,98,0.00,,,0.00,Wunderground v.1.15,2013-07-07 11:20:00,
2013-07-07 07:25:00,74.2,73.6,30.01,North,9,0.0,8.0,98,0.00,,,0.00,Wunderground v.1.15,2013-07-07 11:25:00,
2013-07-07 07:35:00,74.8,73.6,30.01,North,5,0.0,8.0,96,0.00,,,0.00,Wunderground v.1.15,2013-07-07 11:35:00,
2013-07-07 07:40:00,75.1,73.6,30.01,North,5,0.0,8.0,95,0.00,,,0.00,Wunderground v.1.15,2013-07-07 11:40:00,
2013-07-07 07:45:00,75.3,73.8,30.01,SSW,209,0.0,8.0,95,0.00,,,0.00,Wunderground v.1.15,2013-07-07 11:45:00,
2013-07-07 07:50:00,75.5,73.7,30.01,SSW,206,1.0,8.0,94,0.00,,,0.00,Wunderground v.1.15,2013-07-07 11:50:00,
2013-07-07 08:00:00,76.4,74.5,30.01,SSW,197,0.0,8.0,94,0.00,,,0.00,Wunderground v.1.15,2013-07-07 12:00:00,
2013-07-07 08:05:00,76.9,74.4,30.01,SSW,197,1.0,8.0,92,0.00,,,0.00,Wunderground v.1.15,2013-07-07 12:05:00,
2013-07-07 08:10:00,77.2,74.7,30.01,SSW,197,0.0,8.0,92,0.00,,,0.00,Wunderground v.1.15,2013-07-07 12:10:00,
2013-07-07 08:15:00,77.7,74.9,30.02,SSW,197,0.0,8.0,91,0.00,,,0.00,Wunderground v.1.15,2013-07-07 12:15:00,
2013-07-07 08:25:00,78.7,75.5,30.01,SSW,197,0.0,8.0,90,0.00,,,0.00,Wunderground v.1.15,2013-07-07 12:25:00,
2013-07-07 08:35:00,80.0,76.1,30.01,SSW,197,0.0,8.0,88,0.00,,,0.00,Wunderground v.1.15,2013-07-07 12:35:00,
2013-07-07 08:40:00,80.6,76.0,30.01,South,182,0.0,8.0,86,0.00,,,0.00,Wunderground v.1.15,2013-07-07 12:40:00,
2013-07-07 08:45:00,81.0,75.3,30.01,SW,219,0.0,8.0,83,0.00,,,0.00,Wunderground v.1.15,2013-07-07 12:45:00,
2013-07-07 08:50:00,81.4,75.4,30.01,SW,229,0.0,8.0,82,0.00,,,0.00,Wunderground v.1.15,2013-07-07 12:50:00,
2013-07-07 08:55:00,81.6,75.2,30.00,SW,229,1.0,8.0,81,0.00,,,0.00,Wunderground v.1.15,2013-07-07 12:55:00,
2013-07-07 09:04:00,82.5,76.1,30.01,SSW,212,1.0,8.0,81,0.00,,,0.00,Wunderground v.1.15,2013-07-07 13:04:00,
2013-07-07 09:10:00,82.9,77.2,30.00,SSW,212,1.0,8.0,83,0.00,,,0.00,Wunderground v.1.15,2013-07-07 13:10:00,
2013-07-07 09:15:00,83.0,76.2,30.00,SSW,213,1.0,8.0,80,0.00,,,0.00,Wunderground v.1.15,2013-07-07 13:15:00,
2013-07-07 09:20:00,82.7,77.7,30.00,SW,219,1.0,8.0,85,0.00,,,0.00,Wunderground v.1.15,2013-07-07 13:20:00,
2013-07-07 09:25:00,82.8,77.1,30.00,SW,229,1.0,8.0,83,0.00,,,0.00,Wunderground v.1.15,2013-07-07 13:25:00,
2013-07-07 09:30:00,82.4,76.7,30.00,SW,229,2.0,8.0,83,0.00,,,0.00,Wunderground v.1.15,2013-07-07 13:30:00,
2013-07-07 09:35:00,82.5,76.4,30.00,SSW,201,2.0,8.0,82,0.00,,,0.00,Wunderground v.1.15,2013-07-07 13:35:00,
2013-07-07 09:40:00,83.2,76.8,30.00,SW,225,1.0,8.0,81,0.00,,,0.00,Wunderground v.1.15,2013-07-07 13:40:00,
2013-07-07 09:45:00,83.4,77.0,30.00,SW,227,1.0,8.0,81,0.00,,,0.00,Wunderground v.1.15,2013-07-07 13:45:00,
2013-07-07 09:50:00,83.9,76.7,30.00,SSW,213,1.0,8.0,79,0.00,,,0.00,Wunderground v.1.15,2013-07-07 13:50:00,
2013-07-07 10:00:00,84.9,78.4,29.99,SSW,194,1.0,8.0,81,0.00,,,0.00,Wunderground v.1.15,2013-07-07 14:00:00,
2013-07-07 10:05:00,85.3,78.8,30.00,SSW,201,1.0,8.0,81,0.00,,,0.00,Wunderground v.1.15,2013-07-07 14:05:00,
2013-07-07 10:10:00,85.6,76.8,29.99,SSW,212,1.0,8.0,75,0.00,,,0.00,Wunderground v.1.15,2013-07-07 14:10:00,
2013-07-07 10:15:00,86.0,77.9,29.99,North,355,1.0,8.0,77,0.00,,,0.00,Wunderground v.1.15,2013-07-07 14:15:00,
2013-07-07 10:20:00,86.6,77.3,29.99,SW,228,1.0,1.0,74,0.00,,,0.00,Wunderground v.1.15,2013-07-07 14:20:00,
2013-07-07 10:25:00,86.5,75.5,29.99,SW,230,1.0,8.0,70,0.00,,,0.00,Wunderground v.1.15,2013-07-07 14:25:00,
2013-07-07 10:30:00,86.8,77.1,29.99,SW,229,1.0,8.0,73,0.00,,,0.00,Wunderground v.1.15,2013-07-07 14:30:00,
2013-07-07 10:35:00,87.1,77.0,29.99,SW,229,1.0,8.0,72,0.00,,,0.00,Wunderground v.1.15,2013-07-07 14:35:00,
2013-07-07 10:45:00,87.5,79.4,29.99,NNE,27,0.0,8.0,77,0.00,,,0.00,Wunderground v.1.15,2013-07-07 14:45:00,
2013-07-07 10:55:00,87.9,78.2,29.99,NNE,22,0.0,8.0,73,0.00,,,0.00,Wunderground v.1.15,2013-07-07 14:55:00,
2013-07-07 11:00:00,88.4,78.2,29.99,SSW,210,0.0,8.0,72,0.00,,,0.00,Wunderground v.1.15,2013-07-07 15:00:00,
2013-07-07 11:05:00,88.2,77.6,29.99,WSW,239,1.0,8.0,71,0.00,,,0.00,Wunderground v.1.15,2013-07-07 15:05:00,
2013-07-07 11:10:00,88.1,75.8,29.99,SW,217,1.0,8.0,67,0.00,,,0.00,Wunderground v.1.15,2013-07-07 15:10:00,
2013-07-07 11:15:00,87.8,77.2,29.99,SW,227,1.0,8.0,71,0.00,,,0.00,Wunderground v.1.15,2013-07-07 15:15:00,
2013-07-07 11:20:00,87.5,76.9,29.99,SSW,194,1.0,8.0,71,0.00,,,0.00,Wunderground v.1.15,2013-07-07 15:20:00,
2013-07-07 11:25:00,87.3,76.7,29.98,SSW,202,2.0,8.0,71,0.00,,,0.00,Wunderground v.1.15,2013-07-07 15:25:00,
2013-07-07 11:30:00,87.8,77.2,29.98,SSW,203,1.0,8.0,71,0.00,,,0.00,Wunderground v.1.15,2013-07-07 15:30:00,
2013-07-07 11:40:00,88.2,75.9,29.98,SSW,201,1.0,8.0,67,0.00,,,0.00,Wunderground v.1.15,2013-07-07 15:40:00,
2013-07-07 11:45:00,87.6,75.7,29.98,SSW,209,1.0,8.0,68,0.00,,,0.00,Wunderground v.1.15,2013-07-07 15:45:00,
2013-07-07 11:50:00,87.6,75.3,29.98,SW,230,1.0,8.0,67,0.00,,,0.00,Wunderground v.1.15,2013-07-07 15:50:00,
2013-07-07 12:00:00,87.3,77.6,29.98,SW,228,1.0,8.0,73,0.00,,,0.00,Wunderground v.1.15,2013-07-07 16:00:00,
2013-07-07 12:05:00,87.1,75.7,29.98,WSW,248,2.0,8.0,69,0.00,,,0.00,Wunderground v.1.15,2013-07-07 16:05:00,
2013-07-07 12:10:00,86.7,77.0,29.98,West,261,2.0,2.0,73,0.00,,,0.00,Wunderground v.1.15,2013-07-07 16:10:00,
2013-07-07 12:20:00,86.3,75.8,29.98,WSW,244,0.0,8.0,71,0.00,,,0.00,Wunderground v.1.15,2013-07-07 16:20:00,
2013-07-07 12:25:00,85.8,74.4,29.98,West,259,1.0,8.0,69,0.00,,,0.00,Wunderground v.1.15,2013-07-07 16:25:00,
2013-07-07 12:30:00,85.7,75.2,29.98,WSW,249,1.0,8.0,71,0.00,,,0.00,Wunderground v.1.15,2013-07-07 16:30:00,
2013-07-07 12:35:00,86.0,75.5,29.98,West,262,2.0,8.0,71,0.00,,,0.00,Wunderground v.1.15,2013-07-07 16:35:00,
2013-07-07 12:40:00,86.4,75.0,29.97,West,263,2.0,2.0,69,0.00,,,0.00,Wunderground v.1.15,2013-07-07 16:40:00,
2013-07-07 12:45:00,87.1,77.4,29.97,WSW,248,2.0,8.0,73,0.00,,,0.00,Wunderground v.1.15,2013-07-07 16:45:00,
2013-07-07 12:50:00,87.7,77.1,29.97,SW,217,2.0,8.0,71,0.00,,,0.00,Wunderground v.1.15,2013-07-07 16:50:00,
2013-07-07 12:55:00,87.8,75.5,29.97,SW,233,2.0,8.0,67,0.00,,,0.00,Wunderground v.1.15,2013-07-07 16:55:00,
2013-07-07 13:05:00,87.9,73.7,29.96,SSW,211,2.0,8.0,63,0.00,,,0.00,Wunderground v.1.15,2013-07-07 17:05:00,
2013-07-07 13:15:00,88.4,76.0,29.96,SSW,213,3.0,8.0,67,0.00,,,0.00,Wunderground v.1.15,2013-07-07 17:15:00,
2013-07-07 13:20:00,88.1,74.8,29.95,West,280,1.0,8.0,65,0.00,,,0.00,Wunderground v.1.15,2013-07-07 17:20:00,
2013-07-07 13:25:00,88.1,76.2,29.95,West,262,2.0,8.0,68,0.00,,,0.00,Wunderground v.1.15,2013-07-07 17:25:00,
2013-07-07 13:30:00,87.9,76.0,29.96,WSW,240,3.0,8.0,68,0.00,,,0.00,Wunderground v.1.15,2013-07-07 17:30:00,
2013-07-07 13:35:00,87.3,75.4,29.95,SSW,212,4.0,8.0,68,0.00,,,0.00,Wunderground v.1.15,2013-07-07 17:35:00,
2013-07-07 13:40:00,86.6,75.2,29.95,SSW,209,4.0,4.0,69,0.00,,,0.00,Wunderground v.1.15,2013-07-07 17:40:00,
2013-07-07 13:50:00,85.6,74.7,29.94,West,261,2.0,8.0,70,0.00,,,0.00,Wunderground v.1.15,2013-07-07 17:50:00,
2013-07-07 13:55:00,86.1,75.2,29.94,WSW,242,2.0,8.0,70,0.00,,,0.00,Wunderground v.1.15,2013-07-07 17:55:00,
2013-07-07 14:00:00,86.7,76.2,29.94,WSW,252,3.0,8.0,71,0.00,,,0.00,Wunderground v.1.15,2013-07-07 18:00:00,
2013-07-07 14:05:00,86.8,76.3,29.94,West,261,4.0,8.0,71,0.00,,,0.00,Wunderground v.1.15,2013-07-07 18:05:00,
2013-07-07 14:10:00,86.9,75.5,29.93,SW,235,3.0,3.0,69,0.00,,,0.00,Wunderground v.1.15,2013-07-07 18:10:00,
2013-07-07 14:15:00,86.8,76.3,29.93,SSW,202,3.0,5.0,71,0.00,,,0.00,Wunderground v.1.15,2013-07-07 18:15:00,
2013-07-07 14:20:00,86.9,75.5,29.93,SSW,198,4.0,4.0,69,0.00,,,0.00,Wunderground v.1.15,2013-07-07 18:20:00,
2013-07-07 14:30:00,87.0,75.2,29.93,SSW,206,4.0,4.0,68,0.00,,,0.00,Wunderground v.1.15,2013-07-07 18:30:00,
2013-07-07 14:35:00,87.1,76.5,29.94,SSW,209,4.0,5.0,71,0.00,,,0.00,Wunderground v.1.15,2013-07-07 18:35:00,
2013-07-07 14:40:00,86.6,76.1,29.94,WSW,256,2.0,2.0,71,0.00,,,0.00,Wunderground v.1.15,2013-07-07 18:40:00,
2013-07-07 14:50:00,85.0,76.2,29.93,SW,232,2.0,8.0,75,0.00,,,0.00,Wunderground v.1.15,2013-07-07 18:50:00,
2013-07-07 14:55:00,84.5,75.7,29.93,West,277,2.0,8.0,75,0.00,,,0.00,Wunderground v.1.15,2013-07-07 18:55:00,
2013-07-07 15:05:00,84.2,76.2,29.93,West,263,1.0,2.0,77,0.00,,,0.00,Wunderground v.1.15,2013-07-07 19:05:00,
2013-07-07 15:10:00,84.1,76.1,29.93,SW,220,1.0,8.0,77,0.00,,,0.00,Wunderground v.1.15,2013-07-07 19:10:00,
2013-07-07 15:15:00,83.8,76.2,29.93,West,267,1.0,8.0,78,0.00,,,0.00,Wunderground v.1.15,2013-07-07 19:15:00,
2013-07-07 15:20:00,83.6,76.4,29.93,West,266,1.0,1.0,79,0.00,,,0.00,Wunderground v.1.15,2013-07-07 19:20:00,
2013-07-07 15:25:00,83.4,76.2,29.93,West,263,0.0,8.0,79,0.00,,,0.00,Wunderground v.1.15,2013-07-07 19:25:00,
2013-07-07 15:30:00,83.5,77.1,29.93,WSW,257,0.0,8.0,81,0.00,,,0.00,Wunderground v.1.15,2013-07-07 19:30:00,
2013-07-07 15:40:00,83.7,78.0,29.92,WSW,258,0.0,8.0,83,0.00,,,0.00,Wunderground v.1.15,2013-07-07 19:40:00,
2013-07-07 15:45:00,83.3,75.3,29.92,NNE,28,0.0,8.0,77,0.00,,,0.00,Wunderground v.1.15,2013-07-07 19:45:00,
2013-07-07 15:50:00,82.8,74.8,29.92,NE,34,0.0,8.0,77,0.00,,,0.00,Wunderground v.1.15,2013-07-07 19:50:00,
2013-07-07 15:55:00,81.9,73.2,29.92,NNE,21,1.0,8.0,75,0.00,,,0.00,Wunderground v.1.15,2013-07-07 19:55:00,
2013-07-07 16:00:00,80.8,72.5,29.92,NNE,30,1.0,8.0,76,0.00,,,0.00,Wunderground v.1.15,2013-07-07 20:00:00,
2013-07-07 16:05:00,80.1,72.2,29.92,ENE,70,1.0,8.0,77,0.00,,,0.00,Wunderground v.1.15,2013-07-07 20:05:00,
2013-07-07 16:10:00,79.6,72.1,29.93,East,86,0.0,8.0,78,0.00,,,0.00,Wunderground v.1.15,2013-07-07 20:10:00,
2013-07-07 16:15:00,79.3,72.6,29.94,NE,42,0.0,8.0,80,0.00,,,0.00,Wunderground v.1.15,2013-07-07 20:15:00,
2013-07-07 16:20:00,78.7,70.9,29.93,NE,44,1.0,8.0,77,0.00,,,0.00,Wunderground v.1.15,2013-07-07 20:20:00,
2013-07-07 16:30:00,77.5,70.1,29.94,NE,55,1.0,8.0,78,0.00,,,0.00,Wunderground v.1.15,2013-07-07 20:30:00,
2013-07-07 16:40:00,76.5,69.5,29.95,NE,44,0.0,8.0,79,0.00,,,0.00,Wunderground v.1.15,2013-07-07 20:40:00,
2013-07-07 16:45:00,76.2,69.6,29.95,ENE,76,0.0,8.0,80,0.00,,,0.00,Wunderground v.1.15,2013-07-07 20:45:00,
2013-07-07 16:50:00,76.1,69.1,29.95,ENE,75,0.0,8.0,79,0.00,,,0.00,Wunderground v.1.15,2013-07-07 20:50:00,
2013-07-07 16:55:00,76.0,69.7,29.94,East,98,0.0,8.0,81,0.00,,,0.00,Wunderground v.1.15,2013-07-07 20:55:00,
2013-07-07 17:05:00,76.2,70.3,29.93,East,95,0.0,8.0,82,0.00,,,0.00,Wunderground v.1.15,2013-07-07 21:05:00,
2013-07-07 17:15:00,76.2,70.3,29.93,SSE,167,1.0,8.0,82,0.00,,,0.00,Wunderground v.1.15,2013-07-07 21:15:00,
2013-07-07 17:20:00,76.1,70.6,29.92,South,179,0.0,8.0,83,0.00,,,0.00,Wunderground v.1.15,2013-07-07 21:20:00,
2013-07-07 17:25:00,76.0,70.5,29.92,South,179,0.0,8.0,83,0.00,,,0.00,Wunderground v.1.15,2013-07-07 21:25:00,
2013-07-07 17:30:00,75.9,70.7,29.92,South,179,0.0,8.0,84,0.00,,,0.00,Wunderground v.1.15,2013-07-07 21:30:00,
2013-07-07 17:35:00,75.8,70.6,29.91,South,179,0.0,8.0,84,0.00,,,0.00,Wunderground v.1.15,2013-07-07 21:35:00,
2013-07-07 17:40:00,75.9,70.7,29.91,South,179,0.0,8.0,84,0.00,,,0.00,Wunderground v.1.15,2013-07-07 21:40:00,
2013-07-07 17:45:00,76.0,71.5,29.91,South,179,0.0,8.0,86,0.00,,,0.00,Wunderground v.1.15,2013-07-07 21:45:00,
2013-07-07 17:50:00,76.1,71.3,29.91,South,179,0.0,8.0,85,0.00,,,0.00,Wunderground v.1.15,2013-07-07 21:50:00,
2013-07-07 18:00:00,76.5,70.9,29.91,South,179,0.0,8.0,83,0.00,,,0.00,Wunderground v.1.15,2013-07-07 22:00:00,
2013-07-07 18:05:00,76.6,71.4,29.91,South,179,0.0,8.0,84,0.00,,,0.00,Wunderground v.1.15,2013-07-07 22:05:00,
2013-07-07 18:10:00,76.7,72.2,29.91,South,179,0.0,8.0,86,0.00,,,0.00,Wunderground v.1.15,2013-07-07 22:10:00,
2013-07-07 18:15:00,76.8,71.9,29.91,South,179,0.0,8.0,85,0.00,,,0.00,Wunderground v.1.15,2013-07-07 22:15:00,
2013-07-07 18:20:00,77.0,72.8,29.91,South,179,0.0,8.0,87,0.00,,,0.00,Wunderground v.1.15,2013-07-07 22:20:00,
2013-07-07 18:30:00,77.5,71.9,29.91,South,179,0.0,8.0,83,0.00,,,0.00,Wunderground v.1.15,2013-07-07 22:30:00,
2013-07-07 18:35:00,77.9,72.7,29.91,South,179,0.0,8.0,84,0.00,,,0.00,Wunderground v.1.15,2013-07-07 22:35:00,
2013-07-07 18:40:00,78.2,73.0,29.91,South,179,0.0,8.0,84,0.00,,,0.00,Wunderground v.1.15,2013-07-07 22:40:00,
2013-07-07 18:45:00,78.4,72.8,29.91,South,179,0.0,8.0,83,0.00,,,0.00,Wunderground v.1.15,2013-07-07 22:45:00,
2013-07-07 18:50:00,78.5,72.9,29.91,South,179,0.0,8.0,83,0.00,,,0.00,Wunderground v.1.15,2013-07-07 22:50:00,
2013-07-07 18:55:00,78.6,73.7,29.91,South,179,0.0,8.0,85,0.00,,,0.00,Wunderground v.1.15,2013-07-07 22:55:00,
2013-07-07 19:05:00,78.4,73.9,29.91,South,179,0.0,8.0,86,0.00,,,0.00,Wunderground v.1.15,2013-07-07 23:05:00,
2013-07-07 19:10:00,78.2,74.0,29.91,South,179,0.0,8.0,87,0.00,,,0.00,Wunderground v.1.15,2013-07-07 23:10:00,
2013-07-07 19:15:00,78.1,73.9,29.91,South,179,0.0,8.0,87,0.00,,,0.00,Wunderground v.1.15,2013-07-07 23:15:00,
2013-07-07 19:20:00,77.9,74.1,29.91,South,179,0.0,8.0,88,0.00,,,0.00,Wunderground v.1.15,2013-07-07 23:20:00,
2013-07-07 19:25:00,77.7,74.2,29.91,South,179,0.0,8.0,89,0.00,,,0.00,Wunderground v.1.15,2013-07-07 23:25:00,
2013-07-07 19:30:00,77.4,73.9,29.91,South,179,0.0,8.0,89,0.00,,,0.00,Wunderground v.1.15,2013-07-07 23:30:00,
2013-07-07 19:35:00,77.1,73.9,29.92,South,179,0.0,8.0,90,0.00,,,0.00,Wunderground v.1.15,2013-07-07 23:35:00,
2013-07-07 19:45:00,76.7,73.9,29.91,South,179,0.0,8.0,91,0.00,,,0.00,Wunderground v.1.15,2013-07-07 23:45:00,
2013-07-07 19:50:00,76.6,73.8,29.92,South,179,0.0,8.0,91,0.00,,,0.00,Wunderground v.1.15,2013-07-07 23:50:00,
2013-07-07 19:55:00,76.4,73.6,29.91,South,179,0.0,8.0,91,0.00,,,0.00,Wunderground v.1.15,2013-07-07 23:55:00,
2013-07-07 20:00:00,76.3,73.5,29.92,South,179,0.0,8.0,91,0.00,,,0.00,Wunderground v.1.15,2013-07-08 00:00:00,
2013-07-07 20:05:00,76.2,73.4,29.92,South,179,0.0,8.0,91,0.00,,,0.00,Wunderground v.1.15,2013-07-08 00:05:00,
2013-07-07 20:10:00,76.0,73.5,29.92,South,179,0.0,8.0,92,0.00,,,0.00,Wunderground v.1.15,2013-07-08 00:10:00,
2013-07-07 20:15:00,75.9,73.4,29.92,South,179,0.0,8.0,92,0.00,,,0.00,Wunderground v.1.15,2013-07-08 00:15:00,
2013-07-07 20:20:00,75.7,73.2,29.92,South,179,0.0,8.0,92,0.00,,,0.00,Wunderground v.1.15,2013-07-08 00:20:00,
2013-07-07 20:25:00,75.6,73.4,29.92,South,179,0.0,8.0,93,0.00,,,0.00,Wunderground v.1.15,2013-07-08 00:25:00,
2013-07-07 20:35:00,75.3,73.1,29.92,South,179,0.0,8.0,93,0.00,,,0.00,Wunderground v.1.15,2013-07-08 00:35:00,
2013-07-07 20:40:00,75.2,73.4,29.92,South,179,0.0,8.0,94,0.00,,,0.00,Wunderground v.1.15,2013-07-08 00:40:00,
2013-07-07 20:45:00,75.1,73.3,29.92,South,179,0.0,8.0,94,0.00,,,0.00,Wunderground v.1.15,2013-07-08 00:45:00,
2013-07-07 20:50:00,75.0,73.2,29.93,South,179,0.0,8.0,94,0.00,,,0.00,Wunderground v.1.15,2013-07-08 00:50:00,
2013-07-07 20:55:00,74.9,73.1,29.93,South,179,0.0,8.0,94,0.00,,,0.00,Wunderground v.1.15,2013-07-08 00:55:00,
2013-07-07 21:00:00,74.8,73.0,29.92,South,179,0.0,8.0,94,0.00,,,0.00,Wunderground v.1.15,2013-07-08 01:00:00,
2013-07-07 21:05:00,74.8,72.6,29.93,South,179,0.0,8.0,93,0.00,,,0.00,Wunderground v.1.15,2013-07-08 01:05:00,
2013-07-07 21:10:00,74.9,73.1,29.93,South,179,0.0,8.0,94,0.00,,,0.00,Wunderground v.1.15,2013-07-08 01:10:00,
2013-07-07 21:20:00,75.1,72.9,29.93,SSW,202,0.0,8.0,93,0.00,,,0.00,Wunderground v.1.15,2013-07-08 01:20:00,
2013-07-07 21:25:00,75.2,73.0,29.93,SSW,202,0.0,8.0,93,0.00,,,0.00,Wunderground v.1.15,2013-07-08 01:25:00,
2013-07-07 21:30:00,75.3,72.8,29.93,SSW,202,0.0,8.0,92,0.00,,,0.00,Wunderground v.1.15,2013-07-08 01:30:00,
2013-07-07 21:35:00,75.3,72.8,29.93,SSW,202,0.0,8.0,92,0.00,,,0.00,Wunderground v.1.15,2013-07-08 01:35:00,
2013-07-07 21:45:00,75.3,72.8,29.93,SSW,202,0.0,8.0,92,0.00,,,0.00,Wunderground v.1.15,2013-07-08 01:45:00,
2013-07-07 21:50:00,75.3,72.8,29.92,SSW,202,0.0,8.0,92,0.00,,,0.00,Wunderground v.1.15,2013-07-08 01:50:00,
2013-07-07 21:55:00,75.3,72.8,29.93,SSW,202,0.0,8.0,92,0.00,,,0.00,Wunderground v.1.15,2013-07-08 01:55:00,
2013-07-07 22:00:00,75.5,73.0,29.93,SSW,203,0.0,8.0,92,0.00,,,0.00,Wunderground v.1.15,2013-07-08 02:00:00,
2013-07-07 22:10:00,75.5,72.7,29.92,SSW,203,0.0,8.0,91,0.00,,,0.00,Wunderground v.1.15,2013-07-08 02:10:00,
2013-07-07 22:15:00,75.5,72.7,29.92,SSW,203,0.0,8.0,91,0.00,,,0.00,Wunderground v.1.15,2013-07-08 02:15:00,
2013-07-07 22:20:00,75.6,72.8,29.92,SSW,203,0.0,8.0,91,0.00,,,0.00,Wunderground v.1.15,2013-07-08 02:20:00,
2013-07-07 22:25:00,75.8,73.0,29.92,SSW,203,0.0,8.0,91,0.00,,,0.00,Wunderground v.1.15,2013-07-08 02:25:00,
2013-07-07 22:30:00,76.4,73.2,29.91,WSW,246,1.0,8.0,90,0.00,,,0.00,Wunderground v.1.15,2013-07-08 02:30:00,
2013-07-07 22:35:00,76.6,73.1,29.91,SW,233,1.0,8.0,89,0.00,,,0.00,Wunderground v.1.15,2013-07-08 02:35:00,
2013-07-07 22:40:00,76.7,73.2,29.90,SW,233,0.0,8.0,89,0.00,,,0.00,Wunderground v.1.15,2013-07-08 02:40:00,
2013-07-07 22:50:00,76.2,72.7,29.90,SW,233,0.0,8.0,89,0.00,,,0.00,Wunderground v.1.15,2013-07-08 02:50:00,
2013-07-07 22:55:00,75.9,72.8,29.90,SW,233,0.0,8.0,90,0.00,,,0.00,Wunderground v.1.15,2013-07-08 02:55:00,
2013-07-07 23:00:00,75.6,72.8,29.90,SW,233,0.0,8.0,91,0.00,,,0.00,Wunderground v.1.15,2013-07-08 03:00:00,
2013-07-07 23:05:00,75.4,72.6,29.91,SW,233,0.0,8.0,91,0.00,,,0.00,Wunderground v.1.15,2013-07-08 03:05:00,
2013-07-07 23:10:00,75.2,72.4,29.91,SW,233,0.0,8.0,91,0.00,,,0.00,Wunderground v.1.15,2013-07-08 03:10:00,
2013-07-07 23:15:00,75.0,72.2,29.91,WSW,252,0.0,8.0,91,0.00,,,0.00,Wunderground v.1.15,2013-07-08 03:15:00,
2013-07-07 23:20:00,74.9,71.4,29.91,SSE,163,0.0,8.0,89,0.00,,,0.00,Wunderground v.1.15,2013-07-08 03:20:00,
2013-07-07 23:25:00,75.2,70.7,29.92,WSW,252,1.0,8.0,86,0.00,,,0.00,Wunderground v.1.15,2013-07-08 03:25:00,
2013-07-07 23:35:00,76.4,70.5,29.92,WSW,246,2.0,8.0,82,0.00,,,0.00,Wunderground v.1.15,2013-07-08 03:35:00,
2013-07-07 23:40:00,76.7,70.8,29.92,West,272,1.0,1.0,82,0.00,,,0.00,Wunderground v.1.15,2013-07-08 03:40:00,
2013-07-07 23:45:00,76.7,70.1,29.92,SSW,194,1.0,8.0,80,0.00,,,0.00,Wunderground v.1.15,2013-07-08 03:45:00,
2013-07-07 23:50:00,76.7,69.7,29.92,West,259,1.0,8.0,79,0.00,,,0.00,Wunderground v.1.15,2013-07-08 03:50:00,
2013-07-07 23:55:00,76.7,69.7,29.92,WSW,251,1.0,8.0,79,0.00,,,0.00,Wunderground v.1.15,2013-07-08 03:55:00,